Weather in Shamalgan

Kazakhstan     43°07′30″N   76°27′59″E
temp.,
°C
wind,
m/s
gust,
m/s
humid.,
%
clouds,
%
prec.,
mm/h
press.,
hPa
HPBL,
m
11 may, tue
tue1100:00+15wsw4582100 2.2 1014104
03:00+14sw2266100 0.0 101417
06:00+13wsw1164100 0.0 101411
09:00+17wsw1155100 0.0 1014275
12:00+20nw2348100 0.0 10141254
15:00+21sw3547100 0.8 10141269
18:00+20wnw474939 1.3 1014440
21:00+16s345461 0.1 101741
12 may, wed
wed1200:00+14s33564 0.1 101727
03:00+13ssw33555 0.0 101618
06:00+12ssw326013 0.1 101616
09:00+17nnw335730 0.6 1017684
12:00+17nnw336126 3.6 10171155
15:00+11ssw3391100 10.9 1020156
18:00+13s567573 11.7 1020288
21:00+11s3369100 0.0 102124
13 may, thu
thu1300:00+11e226986 0.0 102249
03:00+9se227014 0.0 102014
06:00+8sse21676 0.0 102112
09:00+13ne34460 0.0 1020990
12:00+16ne33400 0.0 10191563
15:00+17ne22371 0.0 10181825
18:00+17e12370 0.0 10181604
21:00+12s335155 0.0 102019
14 may, fri
fri1400:00+10ssw22522 0.0 102013
03:00+10s33474 0.0 101917
06:00+9ssw2249100 0.0 102014
09:00+15nnw21444 0.0 1020457
12:00+18n22345 0.0 10191889
15:00+19w233334 0.0 10182352
18:00+16n225591 0.0 1019271
21:00+14ene245891 0.1 1021110
15 may, sat
sat1500:00+11ene367250 0.1 1023313
03:00+10ene127459 0.0 1022115
06:00+8ene22762 0.0 102358
09:00+12ene23592 0.0 1022615
12:00+15ne33462 0.0 10201373
15:00+17ne22371 0.0 10191599
18:00+17ese12380 0.0 10181309
21:00+12sse22510 0.0 101912